Time,TemperatureF,DewpointF,PressureIn,WindDirection,WindDirectionDegrees,WindSpeedMPH,WindSpeedGustMPH,Humidity,HourlyPrecipIn,Conditions,Clouds,dailyrainin,SolarRadiationWatts/m^2,SoftwareType,DateUTC
2015-07-05 00:05:00,55.6,54.5,29.95,WNW,291,0.0,0.0,96,0.00,,,0.03,0,Wunderground v.1.15,2015-07-05 04:05:00,
2015-07-05 00:15:00,55.2,54.1,29.95,WNW,291,0.0,0.0,96,0.00,,,0.03,0,Wunderground v.1.15,2015-07-05 04:15:00,
2015-07-05 00:25:00,55.1,54.0,29.95,WNW,291,0.0,0.0,96,0.00,,,0.03,0,Wunderground v.1.15,2015-07-05 04:25:00,
2015-07-05 00:35:00,54.9,53.8,29.95,WNW,291,0.0,0.0,96,0.00,,,0.03,0,Wunderground v.1.15,2015-07-05 04:35:00,
2015-07-05 00:40:00,54.9,53.8,29.95,WNW,291,0.0,0.0,96,0.00,,,0.00,0,Wunderground v.1.15,2015-07-05 04:40:00,
2015-07-05 00:45:00,54.8,53.7,29.95,WNW,291,0.0,0.0,96,0.00,,,0.00,0,Wunderground v.1.15,2015-07-05 04:45:00,
2015-07-05 00:55:00,54.8,53.7,29.95,WNW,291,0.0,0.0,96,0.00,,,0.00,0,Wunderground v.1.15,2015-07-05 04:55:00,
2015-07-05 01:05:00,56.0,55.2,29.95,West,267,1.0,1.0,97,0.00,,,0.00,0,Wunderground v.1.15,2015-07-05 05:05:00,
2015-07-05 01:15:00,57.4,56.6,29.95,WNW,283,2.0,2.0,97,0.00,,,0.00,0,Wunderground v.1.15,2015-07-05 05:15:00,
2015-07-05 01:25:00,57.9,56.8,29.95,NW,317,2.0,2.0,96,0.00,,,0.00,0,Wunderground v.1.15,2015-07-05 05:25:00,
2015-07-05 01:30:00,57.6,56.2,29.95,WNW,296,1.0,1.0,95,0.00,,,0.00,0,Wunderground v.1.15,2015-07-05 05:30:00,
2015-07-05 01:35:00,57.1,55.7,29.95,WNW,289,1.0,2.0,95,0.00,,,0.00,0,Wunderground v.1.15,2015-07-05 05:35:00,
2015-07-05 01:45:00,56.3,54.9,29.95,WNW,303,1.0,1.0,95,0.00,,,0.00,0,Wunderground v.1.15,2015-07-05 05:45:00,
2015-07-05 01:55:00,56.2,55.1,29.95,NW,306,0.0,2.0,96,0.00,,,0.00,0,Wunderground v.1.15,2015-07-05 05:55:00,
2015-07-05 02:00:00,56.1,55.0,29.94,NW,306,0.0,0.0,96,0.00,,,0.00,0,Wunderground v.1.15,2015-07-05 06:00:00,
2015-07-05 02:05:00,56.0,54.9,29.95,NW,304,0.0,0.0,96,0.00,,,0.00,0,Wunderground v.1.15,2015-07-05 06:05:00,
2015-07-05 02:15:00,55.8,54.7,29.95,WNW,302,0.0,1.0,96,0.00,,,0.00,0,Wunderground v.1.15,2015-07-05 06:15:00,
2015-07-05 02:20:00,55.7,54.6,29.94,WNW,302,0.0,0.0,96,0.00,,,0.00,0,Wunderground v.1.15,2015-07-05 06:20:00,
2015-07-05 02:25:00,55.6,54.5,29.95,North,355,0.0,0.0,96,0.00,,,0.00,0,Wunderground v.1.15,2015-07-05 06:25:00,
2015-07-05 02:35:00,56.0,55.2,29.95,WNW,293,1.0,8.0,97,0.00,,,0.00,0,Wunderground v.1.15,2015-07-05 06:35:00,
2015-07-05 02:45:00,58.1,57.3,29.95,WSW,251,4.0,4.0,97,0.00,,,0.00,0,Wunderground v.1.15,2015-07-05 06:45:00,
2015-07-05 02:55:00,59.4,57.7,29.95,West,261,5.0,7.0,94,0.00,,,0.00,0,Wunderground v.1.15,2015-07-05 06:55:00,
2015-07-05 03:05:00,59.6,57.0,29.95,SW,218,1.0,3.0,91,0.00,,,0.00,0,Wunderground v.1.15,2015-07-05 07:05:00,
2015-07-05 03:15:00,58.0,55.7,29.96,East,88,0.0,0.0,92,0.00,,,0.00,0,Wunderground v.1.15,2015-07-05 07:15:00,
2015-07-05 03:20:00,57.4,55.1,29.96,East,88,0.0,0.0,92,0.00,,,0.00,0,Wunderground v.1.15,2015-07-05 07:20:00,
2015-07-05 03:25:00,56.9,54.9,29.96,East,88,0.0,0.0,93,0.00,,,0.00,0,Wunderground v.1.15,2015-07-05 07:25:00,
2015-07-05 03:35:00,56.3,54.6,29.95,East,88,0.0,0.0,94,0.00,,,0.00,0,Wunderground v.1.15,2015-07-05 07:35:00,
2015-07-05 03:45:00,56.1,54.7,29.96,NNW,328,0.0,0.0,95,0.00,,,0.00,0,Wunderground v.1.15,2015-07-05 07:45:00,
2015-07-05 03:50:00,55.9,54.5,29.96,NNW,328,0.0,0.0,95,0.00,,,0.00,0,Wunderground v.1.15,2015-07-05 07:50:00,
2015-07-05 04:00:00,55.5,54.1,29.96,NNW,328,0.0,0.0,95,0.00,,,0.00,0,Wunderground v.1.15,2015-07-05 08:00:00,
2015-07-05 04:05:00,55.4,54.0,29.96,NNW,328,0.0,0.0,95,0.00,,,0.00,0,Wunderground v.1.15,2015-07-05 08:05:00,
2015-07-05 04:15:00,55.1,53.7,29.96,NNW,328,0.0,0.0,95,0.00,,,0.00,0,Wunderground v.1.15,2015-07-05 08:15:00,
2015-07-05 04:20:00,55.1,54.0,29.97,NNW,328,0.0,0.0,96,0.00,,,0.00,0,Wunderground v.1.15,2015-07-05 08:20:00,
2015-07-05 04:25:00,55.1,54.0,29.97,NNW,328,0.0,0.0,96,0.00,,,0.00,0,Wunderground v.1.15,2015-07-05 08:25:00,
2015-07-05 04:35:00,54.9,53.8,29.97,NNW,328,0.0,0.0,96,0.00,,,0.00,0,Wunderground v.1.15,2015-07-05 08:35:00,
2015-07-05 04:40:00,54.9,53.8,29.97,NNW,328,0.0,0.0,96,0.00,,,0.00,0,Wunderground v.1.15,2015-07-05 08:40:00,
2015-07-05 04:50:00,54.9,53.8,29.97,NNW,328,0.0,0.0,96,0.00,,,0.00,0,Wunderground v.1.15,2015-07-05 08:50:00,
2015-07-05 05:00:00,54.7,53.6,29.97,NNW,328,0.0,0.0,96,0.00,,,0.00,0,Wunderground v.1.15,2015-07-05 09:00:00,
2015-07-05 05:05:00,54.6,53.5,29.98,NNW,328,0.0,0.0,96,0.00,,,0.00,0,Wunderground v.1.15,2015-07-05 09:05:00,
2015-07-05 05:15:00,54.6,53.5,29.98,NNW,328,0.0,0.0,96,0.00,,,0.00,0,Wunderground v.1.15,2015-07-05 09:15:00,
2015-07-05 05:25:00,54.6,53.5,29.98,NNW,328,0.0,0.0,96,0.00,,,0.00,7,Wunderground v.1.15,2015-07-05 09:25:00,
2015-07-05 05:35:00,54.5,53.4,29.98,NNW,328,0.0,0.0,96,0.00,,,0.00,12,Wunderground v.1.15,2015-07-05 09:35:00,
2015-07-05 05:45:00,54.8,54.0,29.98,WSW,251,0.0,0.0,97,0.00,,,0.00,23,Wunderground v.1.15,2015-07-05 09:45:00,
2015-07-05 05:55:00,54.9,54.1,29.98,WSW,251,0.0,0.0,97,0.00,,,0.00,26,Wunderground v.1.15,2015-07-05 09:55:00,
2015-07-05 06:05:00,54.8,54.0,29.98,WSW,251,0.0,0.0,97,0.00,,,0.00,60,Wunderground v.1.15,2015-07-05 10:05:00,
2015-07-05 06:15:00,55.0,54.2,29.99,WSW,251,0.0,0.0,97,0.00,,,0.00,77,Wunderground v.1.15,2015-07-05 10:15:00,
2015-07-05 06:25:00,55.4,54.6,29.99,WSW,251,0.0,0.0,97,0.00,,,0.00,102,Wunderground v.1.15,2015-07-05 10:25:00,
2015-07-05 06:35:00,56.0,55.2,30.00,WSW,251,0.0,0.0,97,0.00,,,0.00,123,Wunderground v.1.15,2015-07-05 10:35:00,
2015-07-05 06:40:00,56.3,55.5,30.00,WSW,251,0.0,0.0,97,0.00,,,0.00,139,Wunderground v.1.15,2015-07-05 10:40:00,
2015-07-05 06:45:00,56.5,55.7,30.00,WSW,251,0.0,0.0,97,0.00,,,0.00,148,Wunderground v.1.15,2015-07-05 10:45:00,
2015-07-05 06:55:00,57.0,56.2,30.00,West,278,0.0,0.0,97,0.00,,,0.00,174,Wunderground v.1.15,2015-07-05 10:55:00,
2015-07-05 07:05:00,57.7,56.9,30.00,West,278,0.0,0.0,97,0.00,,,0.00,206,Wunderground v.1.15,2015-07-05 11:05:00,
2015-07-05 07:15:00,58.5,57.7,30.01,West,278,0.0,1.0,97,0.00,,,0.00,236,Wunderground v.1.15,2015-07-05 11:15:00,
2015-07-05 07:20:00,59.0,58.2,30.01,West,278,0.0,0.0,97,0.00,,,0.00,250,Wunderground v.1.15,2015-07-05 11:20:00,
2015-07-05 07:30:00,60.0,59.1,30.01,West,278,0.0,0.0,97,0.00,,,0.00,271,Wunderground v.1.15,2015-07-05 11:30:00,
2015-07-05 07:35:00,60.7,59.6,30.01,West,278,0.0,0.0,96,0.00,,,0.00,290,Wunderground v.1.15,2015-07-05 11:35:00,
2015-07-05 07:45:00,61.5,60.1,30.01,West,281,0.0,0.0,95,0.00,,,0.00,330,Wunderground v.1.15,2015-07-05 11:45:00,
2015-07-05 07:50:00,62.3,60.6,30.02,NW,311,1.0,1.0,94,0.00,,,0.00,346,Wunderground v.1.15,2015-07-05 11:50:00,
2015-07-05 08:00:00,63.8,61.1,30.03,West,259,2.0,2.0,91,0.00,,,0.00,387,Wunderground v.1.15,2015-07-05 12:00:00,
2015-07-05 08:05:00,64.5,61.5,30.03,SSW,211,2.0,2.0,90,0.00,,,0.00,399,Wunderground v.1.15,2015-07-05 12:05:00,
2015-07-05 08:15:00,65.6,61.9,30.03,NW,321,1.0,1.0,88,0.00,,,0.00,425,Wunderground v.1.15,2015-07-05 12:15:00,
2015-07-05 08:20:00,66.0,62.3,30.03,NW,321,1.0,1.0,88,0.00,,,0.00,436,Wunderground v.1.15,2015-07-05 12:20:00,
2015-07-05 08:25:00,66.3,62.3,30.04,WNW,288,0.0,1.0,87,0.00,,,0.00,457,Wunderground v.1.15,2015-07-05 12:25:00,
2015-07-05 08:35:00,67.5,62.8,30.04,West,275,1.0,1.0,85,0.00,,,0.00,490,Wunderground v.1.15,2015-07-05 12:35:00,
2015-07-05 08:45:00,68.3,63.3,30.04,WNW,284,1.0,1.0,84,0.00,,,0.00,512,Wunderground v.1.15,2015-07-05 12:45:00,
2015-07-05 08:50:00,68.6,62.9,30.04,WNW,293,1.0,1.0,82,0.00,,,0.00,527,Wunderground v.1.15,2015-07-05 12:50:00,
2015-07-05 09:00:00,69.2,63.5,30.04,NW,310,0.0,0.0,82,0.00,,,0.00,564,Wunderground v.1.15,2015-07-05 13:00:00,
2015-07-05 09:05:00,69.9,63.4,30.04,West,271,0.0,0.0,80,0.00,,,0.00,585,Wunderground v.1.15,2015-07-05 13:05:00,
2015-07-05 09:15:00,71.2,63.6,30.03,East,89,0.0,0.0,77,0.00,,,0.00,591,Wunderground v.1.15,2015-07-05 13:15:00,
2015-07-05 09:20:00,72.0,64.0,30.03,East,89,0.0,0.0,76,0.00,,,0.00,610,Wunderground v.1.15,2015-07-05 13:20:00,
2015-07-05 09:25:00,72.5,63.4,30.03,ESE,104,0.0,3.0,73,0.00,,,0.00,622,Wunderground v.1.15,2015-07-05 13:25:00,
2015-07-05 09:35:00,72.7,63.9,30.03,East,99,1.0,1.0,74,0.00,,,0.00,654,Wunderground v.1.15,2015-07-05 13:35:00,
2015-07-05 09:40:00,73.0,63.8,30.03,East,99,0.0,1.0,73,0.00,,,0.00,677,Wunderground v.1.15,2015-07-05 13:40:00,
2015-07-05 09:45:00,73.2,63.6,30.03,East,99,0.0,1.0,72,0.00,,,0.00,693,Wunderground v.1.15,2015-07-05 13:45:00,
2015-07-05 09:55:00,73.6,63.2,30.03,WSW,247,1.0,2.0,70,0.00,,,0.00,729,Wunderground v.1.15,2015-07-05 13:55:00,
2015-07-05 10:05:00,74.3,63.9,30.03,NNW,344,2.0,2.0,70,0.00,,,0.00,742,Wunderground v.1.15,2015-07-05 14:05:00,
2015-07-05 10:15:00,74.7,62.1,30.03,WNW,290,2.0,5.0,65,0.00,,,0.00,751,Wunderground v.1.15,2015-07-05 14:15:00,
2015-07-05 10:25:00,74.8,62.2,30.03,NW,325,3.0,3.0,65,0.00,,,0.00,775,Wunderground v.1.15,2015-07-05 14:25:00,
2015-07-05 10:30:00,75.2,62.6,30.03,WNW,294,3.0,3.0,65,0.00,,,0.00,773,Wunderground v.1.15,2015-07-05 14:30:00,
2015-07-05 10:35:00,75.5,62.0,30.03,NW,311,2.0,6.0,63,0.00,,,0.00,770,Wunderground v.1.15,2015-07-05 14:35:00,
2015-07-05 10:45:00,76.0,62.5,30.03,NW,323,2.0,3.0,63,0.00,,,0.00,803,Wunderground v.1.15,2015-07-05 14:45:00,
2015-07-05 10:55:00,76.7,61.8,30.03,West,259,2.0,4.0,60,0.00,,,0.00,814,Wunderground v.1.15,2015-07-05 14:55:00,
2015-07-05 11:05:00,77.0,61.1,30.03,NW,321,3.0,10.0,58,0.00,,,0.00,833,Wunderground v.1.15,2015-07-05 15:05:00,
2015-07-05 11:15:00,77.5,62.5,30.03,WNW,291,2.0,4.0,60,0.00,,,0.00,838,Wunderground v.1.15,2015-07-05 15:15:00,
2015-07-05 11:25:00,78.0,60.5,30.03,WNW,298,3.0,4.0,55,0.00,,,0.00,860,Wunderground v.1.15,2015-07-05 15:25:00,
2015-07-05 11:30:00,78.5,62.0,30.03,West,275,2.0,2.0,57,0.00,,,0.00,868,Wunderground v.1.15,2015-07-05 15:30:00,
2015-07-05 11:35:00,79.4,61.3,30.03,NW,321,1.0,3.0,54,0.00,,,0.00,902,Wunderground v.1.15,2015-07-05 15:35:00,
2015-07-05 11:45:00,79.8,62.2,30.03,WNW,298,1.0,1.0,55,0.00,,,0.00,898,Wunderground v.1.15,2015-07-05 15:45:00,
2015-07-05 11:55:00,80.2,60.4,30.03,NW,311,2.0,2.0,51,0.00,,,0.00,919,Wunderground v.1.15,2015-07-05 15:55:00,
2015-07-05 12:05:00,80.3,60.5,30.02,NE,50,3.0,6.0,51,0.00,,,0.00,782,Wunderground v.1.15,2015-07-05 16:05:00,
2015-07-05 12:15:00,80.6,59.7,30.03,WNW,302,2.0,3.0,49,0.00,,,0.00,969,Wunderground v.1.15,2015-07-05 16:15:00,
2015-07-05 12:20:00,80.8,61.0,30.02,WNW,298,2.0,2.0,51,0.00,,,0.00,916,Wunderground v.1.15,2015-07-05 16:20:00,
2015-07-05 12:30:00,81.0,60.0,30.02,NNE,13,2.0,2.0,49,0.00,,,0.00,995,Wunderground v.1.15,2015-07-05 16:30:00,
2015-07-05 12:35:00,81.0,60.0,30.03,WNW,285,3.0,4.0,49,0.00,,,0.00,969,Wunderground v.1.15,2015-07-05 16:35:00,
2015-07-05 12:45:00,81.5,59.3,30.02,WNW,298,2.0,5.0,47,0.00,,,0.00,990,Wunderground v.1.15,2015-07-05 16:45:00,
2015-07-05 12:55:00,81.6,60.0,30.02,NNW,334,2.0,2.0,48,0.00,,,0.00,993,Wunderground v.1.15,2015-07-05 16:55:00,
2015-07-05 13:00:00,81.7,58.9,30.02,WNW,282,2.0,2.0,46,0.00,,,0.00,976,Wunderground v.1.15,2015-07-05 17:00:00,
2015-07-05 13:05:00,81.6,60.0,30.02,North,355,3.0,4.0,48,0.00,,,0.00,935,Wunderground v.1.15,2015-07-05 17:05:00,
2015-07-05 13:15:00,82.3,59.4,30.02,WNW,285,2.0,8.0,46,0.00,,,0.00,308,Wunderground v.1.15,2015-07-05 17:15:00,
2015-07-05 13:20:00,82.1,59.9,30.02,WNW,288,2.0,2.0,47,0.00,,,0.00,923,Wunderground v.1.15,2015-07-05 17:20:00,
2015-07-05 13:25:00,82.5,61.4,30.02,NNW,335,2.0,4.0,49,0.00,,,0.00,914,Wunderground v.1.15,2015-07-05 17:25:00,
2015-07-05 13:35:00,82.5,59.0,30.02,WNW,289,3.0,3.0,45,0.00,,,0.00,262,Wunderground v.1.15,2015-07-05 17:35:00,
2015-07-05 13:45:00,81.9,60.3,30.02,WSW,242,2.0,2.0,48,0.00,,,0.00,977,Wunderground v.1.15,2015-07-05 17:45:00,
2015-07-05 13:55:00,81.8,59.6,30.02,West,281,2.0,2.0,47,0.00,,,0.00,302,Wunderground v.1.15,2015-07-05 17:55:00,
2015-07-05 14:00:00,81.6,61.7,30.02,NW,314,1.0,1.0,51,0.00,,,0.00,431,Wunderground v.1.15,2015-07-05 18:00:00,
2015-07-05 14:05:00,81.7,62.9,30.02,NW,304,1.0,2.0,53,0.00,,,0.00,376,Wunderground v.1.15,2015-07-05 18:05:00,
2015-07-05 14:15:00,81.4,64.2,30.02,NW,312,2.0,2.0,56,0.00,,,0.01,341,Wunderground v.1.15,2015-07-05 18:15:00,
2015-07-05 14:20:00,81.2,63.0,30.02,NNW,329,1.0,5.0,54,0.00,,,0.01,330,Wunderground v.1.15,2015-07-05 18:20:00,
2015-07-05 14:25:00,81.0,61.7,30.02,NNW,328,1.0,5.0,52,0.00,,,0.01,907,Wunderground v.1.15,2015-07-05 18:25:00,
2015-07-05 14:35:00,81.8,61.3,30.02,NW,305,3.0,3.0,50,0.00,,,0.01,779,Wunderground v.1.15,2015-07-05 18:35:00,
2015-07-05 14:45:00,82.5,62.5,30.02,SW,215,3.0,7.0,51,0.00,,,0.01,780,Wunderground v.1.15,2015-07-05 18:45:00,
2015-07-05 14:55:00,82.5,62.0,30.01,West,280,3.0,4.0,50,0.00,,,0.01,345,Wunderground v.1.15,2015-07-05 18:55:00,
2015-07-05 15:05:00,81.9,59.1,30.01,NW,308,3.0,4.0,46,0.00,,,0.01,700,Wunderground v.1.15,2015-07-05 19:05:00,
2015-07-05 15:15:00,83.0,60.7,30.01,WNW,299,2.0,10.0,47,0.00,,,0.01,745,Wunderground v.1.15,2015-07-05 19:15:00,
2015-07-05 15:20:00,83.1,60.2,30.01,West,265,4.0,4.0,46,0.00,,,0.01,724,Wunderground v.1.15,2015-07-05 19:20:00,
2015-07-05 15:25:00,83.4,63.4,30.01,NW,325,3.0,6.0,51,0.00,,,0.01,740,Wunderground v.1.15,2015-07-05 19:25:00,